Location: Ariel
(45.9570°N, 122.5700°W)
Time: 15:33:11
(UTC-07:00)

Transit 4A - Pass Details

Date: 24 July 2019
Orbit: 863 x 981 km, 66.8° (Epoch: 24 August)

Event Time Altitude Azimuth Distance (km) Brightness Sun altitude
Rises 08:40:03 0° 328° (NNW) 3,684 10.7 28.4°
Reaches altitude 10° 08:43:18 10° 343° (NNW) 2,724 10.3 29.0°
Maximum altitude 08:48:10 22° 34° (NNE) 1,946 10.2 29.8°
Drops below altitude 10° 08:52:57 10° 84° (E) 2,665 11.9 30.7°
Sets 08:56:04 0° 99° (E) 3,585 12.1 31.2°
